Location: Unspecified
(44.0704°N, 88.6889°W)
Time: 04:40:38
(UTC+02:00)

Transit 2A - Pass Details

Date: 22 June 2019
Orbit: 595 x 964 km, 66.7° (Epoch: 22 July)

Event Time Altitude Azimuth Distance (km) Brightness Sun altitude
Rises 10:52:41 0° 278° (W) 3,648 9.2 -11.4°
Reaches altitude 10° 10:56:53 10° 304° (NW) 2,684 8.7 -10.9°
Maximum altitude 10:59:50 13° 332° (NNW) 2,416 8.8 -10.6°
Drops below altitude 10° 11:02:43 10° 1° (N) 2,623 9.5 -10.2°
Sets 11:06:45 0° 27° (NNE) 3,499 11.1 -9.7°
